This demonstration page uses our WeatherBlox Daily Observations layout. Learn more.

Left ArrowRight Arrow

34.74481, -87.66753

Hourly Observations for February 10, 2021

Temp ( °F °C ) Dew Point ( °F °C ) Humidity (%) Winds ( mph kmh ) Pressure ( in mb ) Visibility ( mi km ) Precip ( " mm )
12:53 am 00:53 Clear 48 8.9 41 5 77 77 E 3 6 30.14 1021 9 14 0.00 0.00
1:53 am 01:53 Hazy 45 7.2 40 4.4 83 83 Calm 30.13 1020 4 6 0.00 0.00
2:53 am 02:53 Clear 45 7.2 39 3.9 80 80 E 5 7 30.12 1020 7 11 0.00 0.00
3:53 am 03:53 Mostly Clear 47 8.3 41 5 80 80 ENE 3 6 30.12 1020 9 14 0.00 0.00
4:53 am 04:53 Cloudy 47 8.3 41 5 80 80 ESE 6 9 30.12 1020 8 13 0.00 0.00
5:53 am 05:53 Cloudy 47 8.3 42 5.6 83 83 SE 5 7 30.12 1020 8 13 0.00 0.00
6:53 am 06:53 Mostly Cloudy with Haze 47 8.3 42 5.6 83 83 SSE 7 11 30.12 1020 5 8 0.00 0.00
7:53 am 07:53 Mostly Cloudy with Haze 51 10.6 45 7.2 80 80 Calm 30.13 1020 6 10 0.00 0.00
8:53 am 08:53 Cloudy 60 15.6 48 8.9 65 65 S 6 9 30.13 1020 10 16 0.00 0.00
9:53 am 09:53 Cloudy 65 18.3 49 9.4 56 56 S 8 13 30.12 1020 10 16 0.00 0.00
10:53 am 10:53 Cloudy 70 21.1 48 8.9 46 46 S 13 20 30.11 1020 10 16 0.00 0.00
11:53 am 11:53 Mostly Sunny 74 23.3 47 8.3 38 38 SW 14 22 30.08 1019 10 16 0.00 0.00
12:53 pm 12:53 Mostly Sunny 74 23.3 45 7.2 36 36 SW 14 22 30.05 1018 10 16 0.00 0.00
1:53 pm 13:53 Sunny 75 23.9 45 7.2 34 34 SW 14 22 30.02 1017 10 16 0.00 0.00
2:53 pm 14:53 Sunny 75 23.9 45 7.2 34 34 SSW 12 19 30.00 1016 10 16 0.00 0.00
3:53 pm 15:53 Sunny 74 23.3 46 7.8 37 37 SSW 9 15 30.00 1016 10 16 0.00 0.00
5:53 pm 17:53 Cloudy 68 20 47 8.3 47 47 S 5 7 30.01 1016 10 16 0.00 0.00
6:53 pm 18:53 Cloudy 67 19.4 46 7.8 47 47 S 6 9 30.03 1017 10 16 0.00 0.00
7:53 pm 19:53 Mostly Cloudy 66 18.9 47 8.3 50 50 Calm 30.03 1017 10 16 0.00 0.00
8:53 pm 20:53 Cloudy 64 17.8 47 8.3 54 54 SW 5 7 30.03 1017 10 16 0.00 0.00
9:53 pm 21:53 Mostly Cloudy 59 15 47 8.3 64 64 WNW 6 9 30.05 1018 10 16 0.00 0.00
10:53 pm 22:53 Mostly Cloudy 55 12.8 43 6.1 64 64 NNW 8 13 30.04 1017 10 16 0.00 0.00
11:53 pm 23:53 Mostly Cloudy 51 10.6 40 4.4 66 66 NNW 10 17 30.05 1018 9 14 0.00 0.00

Powered by AerisWeather